Stanton, MN

7:41 AM CDT on September 26, 2017 (GMT -0500)
Stanton

Weather History for KSYN - November, 2013

Change the Weather History Date:

Sunday, November 17, 2013

  Actual Average (KLVN) Record (KLVN)
Temperature  
Mean Temperature 38 °F -  
Max Temperature 44 °F 41 °F 71 °F (1953)
Min Temperature 33 °F 25 °F -5 °F (1959)
Degree Days  
Heating Degree Days 26    
Moisture  
Dew Point 34 °F    
Average Humidity 80    
Maximum Humidity 92    
Minimum Humidity 72    
Precipitation  
Precipitation 0.00 in - - ()
Sea Level Pressure  
Sea Level Pressure 29.48 in    
Wind  
Wind Speed 11 mph (West)    
Max Wind Speed 26 mph    
Max Gust Speed 36 mph    
Visibility 9 miles    
Events      
Averages and records for this station are not official NWS values.
T = Trace of Precipitation, MM = Missing Value Source: NWS Daily Summary

Daily Weather History Graph

Daily Weather History Graph

Search for Another Location

Airport or City:

Trip Planner

Search our weather history database for the weather conditions in past years. The results will help you decide how hot, cold, wet, or windy it might be!

Date:

Astronomy

Nov. 17, 2013 Rise Set
Actual Time 7:11 AM CST 4:42 PM CST
Civil Twilight 6:39 AM CST 5:14 PM CST
Nautical Twilight 6:04 AM CST 5:49 PM CST
Astronomical Twilight 5:29 AM CST 6:23 PM CST
Moon 4:59 PM CST (11/17) 7:05 AM CST (11/17)
Length of Visible Light 10h 34m
Length of Day
9h 31m
Full, 100% of the Moon is Illuminated
Nov 17
Full
Nov 25
Last Quarter
Dec 2
New
Dec 9
First Quarter
Dec 17
Full

Hourly Weather History & Observations

Time (CST) Temp. Windchill Dew Point Humidity Pressure Visibility Wind Dir Wind Speed Gust Speed Precip Events Conditions
12:12 AM 41.9 °F 37.5 °F 36.7 °F 82% 29.33 in 10.0 mi SSW 6.9 mph - N/A   Clear
12:32 AM 41.4 °F 36.2 °F 36.0 °F 81% 29.33 in 10.0 mi SSW 8.1 mph - N/A   Clear
12:52 AM 41.4 °F 37.6 °F 35.6 °F 80% 29.32 in 10.0 mi SSW 5.8 mph - N/A   Clear
1:12 AM 40.8 °F 37.8 °F 35.1 °F 80% 29.32 in 10.0 mi SSW 4.6 mph - N/A   Clear
1:31 AM 40.5 °F 36.5 °F 34.9 °F 80% 29.31 in 10.0 mi South 5.8 mph - N/A   Clear
1:52 AM 40.5 °F 36.5 °F 35.1 °F 81% 29.32 in 10.0 mi South 5.8 mph - N/A   Clear
2:12 AM 41.0 °F 37.1 °F 34.7 °F 78% 29.33 in 10.0 mi South 5.8 mph - N/A   Clear
2:32 AM 39.9 °F 35.8 °F 33.8 °F 79% 29.33 in 10.0 mi SSW 5.8 mph - N/A   Clear
2:52 AM 37.6 °F 34.0 °F 33.1 °F 84% 29.34 in 10.0 mi SSW 4.6 mph - N/A   Clear
3:12 AM 36.9 °F 33.1 °F 33.1 °F 86% 29.33 in 10.0 mi South 4.6 mph - N/A   Clear
3:32 AM 36.5 °F 31.8 °F 32.4 °F 85% 29.33 in 10.0 mi SSW 5.8 mph - N/A   Clear
3:52 AM 37.8 °F 31.3 °F 33.8 °F 86% 29.34 in 10.0 mi SSW 9.2 mph - N/A   Clear
4:12 AM 38.5 °F 33.4 °F 33.8 °F 83% 29.34 in 10.0 mi SSW 6.9 mph - N/A   Clear
4:32 AM 38.8 °F 33.8 °F 34.3 °F 84% 29.33 in 10.0 mi SSW 6.9 mph - N/A   Clear
4:52 AM 39.2 °F 33.6 °F 34.7 °F 84% 29.34 in 10.0 mi SW 8.1 mph - N/A   Clear
5:11 AM 38.8 °F 33.8 °F 34.9 °F 86% 29.33 in 10.0 mi SSW 6.9 mph - N/A   Clear
5:32 AM 39.0 °F 35.7 °F 35.1 °F 86% 29.33 in 10.0 mi SW 4.6 mph - N/A   Scattered Clouds
5:52 AM 39.2 °F 35.9 °F 35.2 °F 86% 29.33 in 10.0 mi SW 4.6 mph - N/A   Scattered Clouds
6:12 AM 40.1 °F 36.9 °F 35.6 °F 84% 29.33 in 10.0 mi SW 4.6 mph - N/A   Scattered Clouds
6:32 AM 39.6 °F 37.4 °F 35.6 °F 86% 29.32 in 10.0 mi WSW 3.5 mph - N/A   Mostly Cloudy
6:52 AM 39.4 °F 36.1 °F 36.0 °F 88% 29.33 in 10.0 mi WSW 4.6 mph - N/A   Mostly Cloudy
7:12 AM 40.3 °F 35.5 °F 37.2 °F 89% 29.33 in 7.0 mi West 6.9 mph - N/A   Overcast
7:32 AM 41.2 °F 38.2 °F 38.3 °F 89% 29.35 in 5.0 mi WSW 4.6 mph - N/A   Overcast
7:52 AM 41.2 °F 36.6 °F 38.7 °F 91% 29.36 in 2.5 mi WSW 6.9 mph - N/A   Overcast
8:12 AM 41.5 °F 36.4 °F 39.2 °F 91% 29.37 in 2.5 mi SSW 8.1 mph - N/A   Overcast
8:32 AM 41.4 °F 36.8 °F 39.2 °F 92% 29.37 in 2.5 mi SW 6.9 mph - N/A   Overcast
8:52 AM 41.5 °F 36.4 °F 39.4 °F 92% 29.37 in 3.0 mi SW 8.1 mph - N/A   Light Drizzle
9:12 AM 42.1 °F 38.4 °F 39.6 °F 91% 29.37 in 4.0 mi WSW 5.8 mph - N/A   Overcast
9:32 AM 42.3 °F 38.6 °F 39.4 °F 90% 29.36 in 4.0 mi WSW 5.8 mph - N/A   Overcast
9:52 AM 42.8 °F 39.3 °F 39.4 °F 88% 29.36 in 5.0 mi West 5.8 mph - N/A   Overcast
10:12 AM 42.8 °F 36.6 °F 39.2 °F 87% 29.36 in 7.0 mi West 11.5 mph - N/A   Overcast
10:32 AM 42.8 °F 35.4 °F 38.3 °F 84% 29.38 in 10.0 mi WNW 15.0 mph - N/A   Overcast
10:52 AM 42.8 °F 36.6 °F 37.9 °F 83% 29.38 in 10.0 mi WNW 11.5 mph - N/A   Overcast
11:12 AM 42.4 °F 35.0 °F 37.6 °F 83% 29.38 in 10.0 mi WNW 15.0 mph - N/A   Overcast
11:32 AM 42.3 °F 34.8 °F 37.4 °F 83% 29.38 in 10.0 mi WNW 15.0 mph - N/A   Overcast
11:52 AM 42.8 °F 35.4 °F 37.8 °F 82% 29.38 in 10.0 mi WNW 15.0 mph 19.6 mph N/A   Overcast
12:12 PM 43.3 °F 35.8 °F 37.8 °F 81% 29.38 in 10.0 mi NW 16.1 mph 21.9 mph N/A   Overcast
12:32 PM 43.5 °F 35.8 °F 37.4 °F 79% 29.39 in 10.0 mi WNW 17.3 mph 24.2 mph N/A   Overcast
12:52 PM 43.7 °F 35.4 °F 37.4 °F 78% 29.40 in 10.0 mi WNW 19.6 mph 24.2 mph N/A   Overcast
1:12 PM 44.4 °F 36.6 °F 37.6 °F 77% 29.41 in 10.0 mi WNW 18.4 mph - N/A   Overcast
1:32 PM 44.6 °F 36.4 °F 37.6 °F 76% 29.41 in 10.0 mi WNW 20.7 mph 25.3 mph N/A   Overcast
1:52 PM 43.9 °F 35.4 °F 36.7 °F 76% 29.42 in 10.0 mi WNW 20.7 mph 27.6 mph N/A   Overcast
2:12 PM 43.7 °F 34.3 °F 36.1 °F 75% 29.43 in 10.0 mi WNW 25.3 mph 29.9 mph N/A   Overcast
2:32 PM 43.7 °F 35.2 °F 35.8 °F 74% 29.45 in 10.0 mi WNW 20.7 mph 33.4 mph N/A   Overcast
2:52 PM 43.2 °F 33.4 °F 35.2 °F 74% 29.47 in 10.0 mi WNW 26.5 mph 29.9 mph N/A   Overcast
3:12 PM 43.0 °F 34.0 °F 35.6 °F 75% 29.48 in 10.0 mi WNW 21.9 mph 26.5 mph N/A   Overcast
3:32 PM 43.3 °F 33.8 °F 35.1 °F 73% 29.50 in 10.0 mi WNW 25.3 mph 29.9 mph N/A   Overcast
3:52 PM 43.0 °F 35.1 °F 35.4 °F 75% 29.52 in 10.0 mi WNW 17.3 mph 25.3 mph N/A   Overcast
4:12 PM 42.8 °F 34.5 °F 35.1 °F 74% 29.54 in 10.0 mi WNW 18.4 mph 26.5 mph N/A   Overcast
4:32 PM 41.9 °F 33.4 °F 33.8 °F 73% 29.56 in 10.0 mi WNW 18.4 mph 27.6 mph N/A   Mostly Cloudy
4:52 PM 40.8 °F 31.4 °F 33.6 °F 76% 29.58 in 10.0 mi WNW 20.7 mph 27.6 mph N/A   Scattered Clouds
5:12 PM 40.1 °F 30.5 °F 32.9 °F 75% 29.60 in 10.0 mi WNW 20.7 mph 28.8 mph N/A   Scattered Clouds
5:32 PM 38.8 °F 28.5 °F 31.8 °F 76% 29.62 in 10.0 mi WNW 21.9 mph 31.1 mph N/A   Clear
5:52 PM 38.7 °F 28.8 °F 32.0 °F 77% 29.64 in 10.0 mi WNW 19.6 mph 28.8 mph N/A   Mostly Cloudy
6:11 PM 38.7 °F 27.8 °F 31.8 °F 76% 29.64 in 10.0 mi WNW 24.2 mph 32.2 mph N/A   Mostly Cloudy
6:32 PM 37.8 °F 29.0 °F 32.0 °F 80% 29.66 in 10.0 mi WNW 15.0 mph 23.0 mph N/A   Mostly Cloudy
6:52 PM 37.8 °F 26.8 °F 31.5 °F 78% 29.68 in 10.0 mi West 23.0 mph 29.9 mph N/A   Overcast
7:11 PM 37.0 °F 25.9 °F 30.4 °F 77% 29.70 in 10.0 mi WNW 23.0 mph 33.4 mph N/A   Overcast
7:32 PM 36.9 °F 25.6 °F 29.7 °F 75% 29.71 in 10.0 mi WNW 23.0 mph 31.1 mph N/A   Overcast
7:52 PM 36.5 °F 24.4 °F 29.1 °F 75% 29.71 in 10.0 mi WNW 26.5 mph 33.4 mph N/A   Overcast
8:11 PM 36.1 °F 25.2 °F 28.4 °F 73% 29.72 in 10.0 mi WNW 20.7 mph 28.8 mph N/A   Overcast
8:32 PM 35.6 °F 24.5 °F 28.4 °F 75% 29.73 in 10.0 mi NW 20.7 mph 29.9 mph N/A   Overcast
8:52 PM 34.5 °F 22.0 °F 27.1 °F 74% 29.74 in 10.0 mi WNW 25.3 mph 35.7 mph N/A   Overcast
9:12 PM 34.2 °F 22.6 °F 27.1 °F 75% 29.75 in 10.0 mi WNW 20.7 mph 27.6 mph N/A   Overcast
9:32 PM 34.3 °F 23.5 °F 26.4 °F 73% 29.76 in 10.0 mi WNW 18.4 mph 29.9 mph N/A   Overcast
9:52 PM 34.3 °F 23.9 °F 27.1 °F 75% 29.77 in 10.0 mi WNW 17.3 mph 23.0 mph N/A   Overcast
10:12 PM 34.2 °F 22.1 °F 26.8 °F 74% 29.78 in 10.0 mi WNW 23.0 mph 26.5 mph N/A   Overcast
10:32 PM 33.8 °F 22.8 °F 26.6 °F 75% 29.79 in 10.0 mi WNW 18.4 mph 21.9 mph N/A   Overcast
10:52 PM 33.8 °F 21.6 °F 25.7 °F 72% 29.80 in 10.0 mi WNW 23.0 mph 29.9 mph N/A   Overcast
11:12 PM 33.1 °F 20.9 °F 25.7 °F 74% 29.81 in 10.0 mi WNW 21.9 mph 33.4 mph N/A   Overcast
11:32 PM 33.3 °F 22.5 °F 26.2 °F 75% 29.81 in 10.0 mi WNW 17.3 mph 24.2 mph N/A   Overcast
11:52 PM 33.3 °F 20.9 °F 25.9 °F 74% 29.82 in 10.0 mi WNW 23.0 mph 27.6 mph N/A   Overcast